Precipitable_Water
0.63 0.64 0.64 0.65 0.65 0.65 0.64 0.64 0.64 0.62 0.58 0.54 0.50 0.48 0.47 0.48 0.50 0.53 0.54 0.55 0.56 0.54 0.53 0.52 0.56 0.57 0.57 0.59 0.60 0.66 0.70 0.63 0.59 0.58 0.61 0.68 0.71 0.82 0.83 0.92 1.01 1.09 1.08 1.01 0.98 0.92 0.86 0.93 0.93 1.11 1.07 1.06 1.03 1.01 1.16 1.18 1.19 1.05 0.72 0.62 0.50 0.53 0.50 0.60 0.61 0.69 0.77 0.71 0.81 0.94 1.05 1.02 0.94 1.15 1.25 1.46 1.36 1.36 1.37 1.39 1.51 1.64 1.63 1.74 1.77 1.87 1.88 1.90
0.61 0.63 0.63 0.64 0.64 0.64 0.64 0.63 0.63 0.63 0.61 0.57 0.52 0.49 0.46 0.45 0.46 0.48 0.50 0.53 0.53 0.53 0.50 0.50 0.50 0.53 0.56 0.57 0.57 0.65 0.66 0.59 0.56 0.59 0.63 0.76 0.79 0.82 0.87 0.93 1.01 1.04 1.03 0.88 0.81 0.80 0.78 0.82 0.90 1.00 0.96 0.87 1.08 0.92 1.19 0.99 1.20 0.85 0.70 0.61 0.50 0.59 0.57 0.74 0.72 0.76 0.77 0.72 0.83 0.93 1.04 1.01 0.96 1.10 1.16 1.06 1.09 1.16 1.14 1.25 1.37 1.39 1.54 1.69 1.76 1.81 1.82 1.86
0.60 0.61 0.62 0.63 0.63 0.63 0.63 0.63 0.62 0.62 0.62 0.59 0.55 0.51 0.46 0.45 0.45 0.44 0.46 0.48 0.49 0.49 0.48 0.46 0.46 0.49 0.52 0.56 0.57 0.60 0.61 0.53 0.57 0.56 0.65 0.76 0.76 0.79 0.86 0.92 0.97 0.99 0.88 0.79 0.84 0.81 0.77 0.79 0.90 0.92 0.91 0.82 0.94 0.86 1.05 0.93 1.06 0.93 0.74 0.56 0.59 0.71 0.70 0.74 0.79 0.74 0.84 0.84 0.81 0.87 0.96 0.99 1.02 1.08 1.19 0.98 0.99 1.09 1.00 1.06 1.20 1.26 1.33 1.50 1.64 1.75 1.81 1.85
0.61 0.60 0.61 0.62 0.62 0.62 0.62 0.62 0.62 0.61 0.60 0.60 0.58 0.53 0.47 0.44 0.43 0.44 0.45 0.45 0.45 0.45 0.45 0.43 0.42 0.44 0.49 0.53 0.58 0.58 0.52 0.51 0.49 0.59 0.72 0.82 0.78 0.80 0.86 0.91 0.94 0.95 0.92 0.88 0.89 0.85 0.90 0.91 0.92 0.89 0.83 0.79 0.85 0.96 0.87 0.92 0.88 0.91 0.75 0.62 0.65 0.76 0.68 0.72 0.81 0.81 0.83 0.88 0.82 0.87 0.96 0.92 1.02 1.08 1.06 0.96 0.89 0.94 1.04 1.19 1.15 1.17 1.31 1.44 1.56 1.65 1.72 1.73
0.63 0.61 0.60 0.60 0.61 0.62 0.61 0.61 0.61 0.60 0.59 0.60 0.59 0.56 0.51 0.45 0.43 0.43 0.43 0.43 0.43 0.42 0.42 0.41 0.40 0.42 0.45 0.51 0.55 0.58 0.40 0.38 0.47 0.64 0.82 0.84 0.84 0.83 0.86 0.90 0.93 0.89 0.86 0.88 0.91 0.87 0.87 0.81 0.85 0.84 0.79 0.69 0.79 0.85 0.83 0.91 0.97 0.83 0.73 0.76 0.75 0.79 0.68 0.77 0.82 0.88 0.84 0.89 0.85 0.87 0.82 0.83 1.05 1.00 0.99 0.97 0.80 0.83 1.03 1.19 1.30 1.32 1.39 1.43 1.48 1.58 1.65 1.65
0.64 0.63 0.61 0.60 0.60 0.60 0.60 0.60 0.60 0.59 0.59 0.59 0.58 0.57 0.53 0.47 0.44 0.42 0.41 0.42 0.41 0.41 0.40 0.39 0.39 0.38 0.43 0.48 0.53 0.48 0.40 0.27 0.53 0.64 0.87 0.91 0.88 0.87 0.88 0.90 0.91 0.85 0.82 0.80 0.78 0.78 0.77 0.79 0.79 0.69 0.68 0.65 0.64 0.66 0.74 0.83 0.91 0.64 0.74 0.77 0.80 0.81 0.70 0.84 0.84 0.86 0.88 0.79 0.78 0.78 0.86 0.95 0.89 0.85 0.98 0.96 0.92 1.05 1.28 1.30 1.34 1.40 1.45 1.49 1.55 1.55 1.53 1.57
0.65 0.64 0.63 0.61 0.60 0.59 0.59 0.59 0.59 0.58 0.58 0.58 0.58 0.57 0.54 0.52 0.46 0.42 0.41 0.40 0.40 0.40 0.39 0.38 0.38 0.39 0.41 0.44 0.49 0.39 0.35 0.43 0.56 0.75 0.87 0.94 0.94 0.92 0.92 0.93 0.95 0.83 0.78 0.72 0.70 0.70 0.72 0.71 0.72 0.61 0.60 0.60 0.60 0.66 0.70 0.76 0.83 0.73 0.65 0.77 0.77 0.84 0.76 0.89 0.84 0.90 0.86 0.80 0.76 0.86 0.94 0.80 0.82 0.72 0.97 0.91 1.08 1.20 1.29 1.36 1.36 1.43 1.47 1.49 1.44 1.51 1.51 1.51
0.66 0.65 0.64 0.63 0.61 0.60 0.58 0.57 0.57 0.58 0.57 0.57 0.56 0.56 0.56 0.54 0.48 0.45 0.41 0.39 0.38 0.38 0.39 0.38 0.37 0.38 0.42 0.32 0.23 0.30 0.34 0.40 0.54 0.79 0.88 0.94 0.97 0.96 0.95 0.92 0.86 0.81 0.72 0.68 0.68 0.68 0.72 0.64 0.61 0.63 0.54 0.49 0.55 0.61 0.69 0.72 0.75 0.68 0.67 0.79 0.78 0.84 0.85 0.92 0.90 0.88 0.87 0.84 0.88 0.86 0.77 0.80 0.87 0.84 0.94 0.89 1.06 1.17 1.25 1.35 1.36 1.37 1.40 1.42 1.43 1.45 1.46 1.46
0.67 0.66 0.65 0.64 0.62 0.60 0.59 0.57 0.56 0.56 0.56 0.55 0.55 0.55 0.56 0.53 0.51 0.45 0.42 0.39 0.38 0.38 0.38 0.38 0.37 0.38 0.46 0.34 0.22 0.24 0.30 0.47 0.65 0.82 0.86 0.88 0.92 0.89 0.84 0.75 0.82 0.71 0.66 0.66 0.71 0.73 0.69 0.60 0.62 0.60 0.48 0.51 0.57 0.59 0.66 0.63 0.61 0.72 0.73 0.80 0.77 0.80 0.87 0.91 0.89 0.87 0.86 0.84 0.87 0.77 0.78 0.89 0.93 1.00 0.86 0.98 1.05 1.17 1.25 1.27 1.31 1.32 1.30 1.33 1.40 1.45 1.44 1.42
0.67 0.67 0.66 0.64 0.62 0.60 0.59 0.58 0.56 0.55 0.55 0.55 0.54 0.54 0.53 0.52 0.51 0.48 0.43 0.40 0.38 0.38 0.38 0.38 0.38 0.38 0.33 0.23 0.17 0.19 0.31 0.59 0.71 0.79 0.81 0.85 0.85 0.78 0.69 0.71 0.72 0.66 0.63 0.66 0.69 0.70 0.63 0.62 0.62 0.64 0.59 0.54 0.59 0.60 0.68 0.62 0.61 0.78 0.77 0.79 0.74 0.80 0.85 0.91 0.83 0.84 0.89 0.84 0.86 0.74 0.76 0.84 1.00 0.94 0.71 1.07 1.11 1.16 1.17 1.18 1.26 1.26 1.24 1.30 1.39 1.46 1.54 1.55
0.67 0.68 0.67 0.65 0.62 0.60 0.59 0.58 0.57 0.55 0.54 0.54 0.53 0.52 0.52 0.52 0.50 0.49 0.44 0.40 0.38 0.38 0.38 0.38 0.41 0.34 0.21 0.20 0.13 0.17 0.34 0.63 0.68 0.68 0.70 0.76 0.72 0.64 0.61 0.69 0.71 0.65 0.64 0.63 0.65 0.71 0.69 0.67 0.67 0.66 0.58 0.51 0.54 0.59 0.65 0.67 0.76 0.75 0.76 0.78 0.77 0.81 0.88 0.90 0.89 0.83 0.88 0.81 0.91 0.80 0.73 0.84 0.87 0.86 0.78 0.99 1.13 1.17 1.08 1.11 1.17 1.21 1.23 1.29 1.37 1.45 1.54 1.58
0.68 0.68 0.68 0.66 0.63 0.60 0.58 0.57 0.57 0.56 0.55 0.53 0.52 0.51 0.51 0.51 0.49 0.48 0.46 0.41 0.38 0.38 0.39 0.40 0.41 0.34 0.31 0.19 0.14 0.15 0.40 0.64 0.68 0.63 0.63 0.66 0.65 0.63 0.63 0.67 0.69 0.64 0.62 0.59 0.65 0.72 0.72 0.68 0.67 0.61 0.47 0.59 0.46 0.58 0.61 0.75 0.73 0.73 0.73 0.60 0.70 0.77 0.74 0.87 0.82 0.84 0.86 0.78 0.95 0.89 0.71 0.69 0.76 0.74 0.96 1.07 1.15 1.13 1.10 1.09 1.12 1.16 1.22 1.28 1.33 1.40 1.46 1.51
0.68 0.69 0.68 0.66 0.63 0.60 0.58 0.57 0.56 0.56 0.55 0.53 0.51 0.50 0.50 0.49 0.48 0.48 0.47 0.42 0.38 0.38 0.40 0.41 0.41 0.37 0.23 0.13 0.14 0.18 0.30 0.52 0.63 0.67 0.66 0.64 0.63 0.66 0.66 0.68 0.68 0.67 0.67 0.64 0.62 0.70 0.71 0.70 0.65 0.56 0.56 0.53 0.48 0.44 0.59 0.75 0.72 0.73 0.68 0.61 0.60 0.64 0.63 0.82 0.91 0.89 0.81 0.83 0.96 0.86 0.48 0.61 0.75 0.90 1.03 1.13 1.11 1.11 1.06 1.05 1.09 1.12 1.18 1.23 1.29 1.34 1.40 1.48
0.69 0.69 0.68 0.66 0.62 0.60 0.58 0.57 0.55 0.55 0.54 0.52 0.49 0.48 0.48 0.48 0.47 0.46 0.46 0.43 0.41 0.39 0.39 0.43 0.45 0.34 0.25 0.15 0.15 0.19 0.36 0.60 0.68 0.67 0.64 0.64 0.58 0.57 0.60 0.65 0.68 0.70 0.72 0.66 0.67 0.70 0.69 0.70 0.63 0.58 0.59 0.51 0.51 0.75 0.64 0.66 0.74 0.58 0.63 0.64 0.52 0.51 0.49 0.77 0.82 0.85 0.73 0.90 0.95 0.87 0.49 0.62 0.78 0.94 1.08 1.14 1.14 1.05 0.99 1.04 1.07 1.10 1.13 1.18 1.24 1.29 1.34 1.41
0.70 0.69 0.68 0.65 0.62 0.60 0.58 0.56 0.54 0.53 0.54 0.51 0.49 0.47 0.46 0.44 0.43 0.44 0.46 0.45 0.45 0.42 0.41 0.47 0.46 0.31 0.20 0.18 0.23 0.24 0.44 0.71 0.61 0.63 0.66 0.61 0.56 0.54 0.55 0.61 0.61 0.63 0.63 0.64 0.63 0.67 0.68 0.65 0.59 0.51 0.47 0.56 0.63 0.61 0.54 0.57 0.62 0.63 0.51 0.43 0.54 0.48 0.51 0.69 0.83 0.82 0.66 0.81 0.97 0.80 0.55 0.63 0.79 0.93 1.11 1.15 1.14 1.09 1.01 1.03 1.07 1.08 1.11 1.14 1.19 1.23 1.27 1.32
0.71 0.70 0.68 0.65 0.61 0.59 0.57 0.56 0.53 0.53 0.52 0.52 0.48 0.44 0.42 0.41 0.40 0.43 0.45 0.47 0.48 0.46 0.47 0.34 0.36 0.29 0.17 0.12 0.18 0.32 0.43 0.46 0.54 0.64 0.67 0.63 0.59 0.54 0.59 0.57 0.58 0.57 0.58 0.59 0.64 0.64 0.63 0.60 0.49 0.49 0.47 0.55 0.52 0.48 0.48 0.49 0.51 0.56 0.47 0.42 0.43 0.49 0.49 0.58 0.73 0.83 0.82 0.78 0.89 0.81 0.57 0.73 0.77 0.96 1.09 1.17 1.14 1.12 1.05 1.05 1.06 1.09 1.10 1.14 1.18 1.22 1.24 1.28
0.71 0.70 0.68 0.64 0.61 0.58 0.57 0.55 0.53 0.52 0.52 0.50 0.46 0.41 0.39 0.38 0.40 0.44 0.50 0.49 0.46 0.44 0.39 0.25 0.32 0.34 0.11 0.24 0.26 0.24 0.36 0.46 0.55 0.56 0.59 0.62 0.61 0.59 0.57 0.53 0.49 0.50 0.54 0.57 0.58 0.57 0.56 0.50 0.53 0.47 0.47 0.45 0.50 0.50 0.42 0.38 0.38 0.43 0.48 0.39 0.46 0.42 0.49 0.46 0.68 0.76 0.81 0.76 0.69 0.82 0.70 0.72 0.81 0.95 1.05 1.14 1.15 1.11 1.06 1.06 1.08 1.09 1.12 1.16 1.20 1.23 1.24 1.27
0.72 0.71 0.67 0.63 0.59 0.58 0.57 0.55 0.54 0.51 0.51 0.49 0.42 0.35 0.32 0.38 0.42 0.46 0.44 0.45 0.52 0.45 0.42 0.45 0.37 0.23 0.15 0.18 0.14 0.24 0.39 0.43 0.48 0.52 0.54 0.58 0.60 0.58 0.54 0.49 0.48 0.47 0.49 0.49 0.53 0.45 0.50 0.44 0.48 0.39 0.41 0.44 0.47 0.44 0.33 0.26 0.29 0.31 0.36 0.36 0.38 0.46 0.47 0.48 0.51 0.63 0.74 0.75 0.70 0.75 0.73 0.76 0.83 0.94 1.02 1.09 1.16 1.11 1.06 1.08 1.10 1.11 1.13 1.17 1.22 1.25 1.26 1.25
0.73 0.70 0.66 0.61 0.59 0.57 0.57 0.56 0.53 0.52 0.50 0.46 0.41 0.41 0.44 0.47 0.48 0.50 0.37 0.38 0.26 0.21 0.18 0.21 0.18 0.10 0.11 0.14 0.21 0.28 0.36 0.44 0.47 0.48 0.49 0.55 0.58 0.59 0.53 0.52 0.47 0.43 0.41 0.40 0.43 0.43 0.45 0.41 0.42 0.36 0.33 0.39 0.42 0.42 0.37 0.34 0.33 0.29 0.32 0.33 0.36 0.34 0.38 0.46 0.58 0.73 0.71 0.66 0.66 0.70 0.66 0.72 0.80 0.89 1.01 1.08 1.11 1.08 1.09 1.11 1.13 1.16 1.18 1.20 1.22 1.25 1.26 1.28
0.73 0.69 0.64 0.60 0.58 0.57 0.57 0.55 0.53 0.51 0.48 0.39 0.33 0.33 0.38 0.28 0.29 0.27 0.34 0.33 0.26 0.22 0.22 0.26 0.24 0.20 0.18 0.19 0.22 0.31 0.40 0.44 0.39 0.42 0.50 0.54 0.54 0.50 0.47 0.44 0.41 0.43 0.41 0.35 0.39 0.41 0.43 0.34 0.32 0.31 0.35 0.40 0.43 0.43 0.40 0.37 0.33 0.30 0.32 0.35 0.34 0.34 0.39 0.55 0.60 0.72 0.79 0.67 0.64 0.70 0.73 0.74 0.78 0.87 0.97 1.05 1.11 1.08 1.07 1.05 1.07 1.14 1.18 1.23 1.25 1.24 1.28 1.32
0.72 0.68 0.63 0.59 0.58 0.57 0.56 0.55 0.52 0.50 0.48 0.43 0.38 0.29 0.21 0.22 0.17 0.16 0.23 0.25 0.29 0.29 0.27 0.28 0.29 0.23 0.21 0.25 0.28 0.30 0.31 0.36 0.38 0.39 0.45 0.55 0.53 0.47 0.40 0.41 0.36 0.33 0.37 0.39 0.36 0.44 0.42 0.32 0.32 0.35 0.41 0.43 0.43 0.42 0.39 0.35 0.33 0.29 0.27 0.30 0.29 0.35 0.37 0.49 0.56 0.69 0.78 0.62 0.63 0.72 0.72 0.74 0.77 0.86 0.95 1.04 1.06 1.01 1.03 1.03 1.04 1.11 1.18 1.24 1.28 1.25 1.30 1.36
0.71 0.67 0.61 0.59 0.57 0.57 0.56 0.54 0.52 0.50 0.49 0.44 0.37 0.28 0.30 0.32 0.33 0.35 0.29 0.19 0.24 0.28 0.30 0.31 0.32 0.26 0.29 0.28 0.32 0.33 0.35 0.32 0.31 0.38 0.42 0.46 0.45 0.39 0.38 0.36 0.33 0.30 0.37 0.38 0.36 0.33 0.31 0.30 0.34 0.40 0.44 0.45 0.43 0.39 0.39 0.34 0.29 0.27 0.26 0.28 0.30 0.35 0.43 0.54 0.59 0.66 0.73 0.64 0.61 0.70 0.65 0.70 0.76 0.84 0.93 0.97 0.98 1.04 1.10 1.09 1.08 1.10 1.16 1.22 1.28 1.28 1.32 1.35
0.68 0.64 0.61 0.59 0.57 0.57 0.56 0.54 0.51 0.50 0.43 0.35 0.33 0.36 0.35 0.46 0.53 0.53 0.39 0.25 0.21 0.27 0.27 0.29 0.27 0.26 0.25 0.30 0.31 0.33 0.26 0.26 0.26 0.29 0.34 0.36 0.38 0.37 0.37 0.33 0.31 0.33 0.36 0.36 0.29 0.30 0.27 0.31 0.36 0.42 0.44 0.41 0.38 0.38 0.37 0.33 0.29 0.27 0.28 0.28 0.25 0.35 0.33 0.30 0.52 0.61 0.67 0.62 0.59 0.66 0.62 0.68 0.79 0.86 0.89 0.97 0.97 1.01 1.10 1.13 1.15 1.18 1.16 1.21 1.26 1.29 1.32 1.34
0.65 0.62 0.60 0.58 0.58 0.57 0.57 0.53 0.51 0.45 0.37 0.42 0.41 0.39 0.51 0.55 0.50 0.43 0.26 0.17 0.16 0.22 0.26 0.29 0.29 0.27 0.25 0.22 0.30 0.27 0.23 0.26 0.26 0.24 0.32 0.30 0.28 0.35 0.33 0.34 0.32 0.32 0.31 0.33 0.32 0.30 0.31 0.34 0.41 0.42 0.42 0.39 0.36 0.36 0.34 0.30 0.24 0.28 0.29 0.28 0.28 0.32 0.35 0.37 0.42 0.56 0.65 0.68 0.70 0.64 0.58 0.61 0.72 0.72 0.78 0.93 1.02 1.01 1.06 1.11 1.14 1.19 1.24 1.32 1.37 1.37 1.42 1.36
0.63 0.60 0.59 0.58 0.56 0.58 0.54 0.52 0.39 0.36 0.45 0.45 0.43 0.52 0.56 0.56 0.52 0.45 0.22 0.18 0.16 0.17 0.32 0.30 0.33 0.29 0.30 0.35 0.34 0.25 0.26 0.26 0.25 0.27 0.31 0.29 0.27 0.29 0.29 0.38 0.34 0.28 0.29 0.33 0.33 0.31 0.32 0.38 0.42 0.40 0.39 0.38 0.36 0.34 0.33 0.30 0.26 0.28 0.30 0.29 0.28 0.34 0.36 0.41 0.50 0.47 0.47 0.48 0.62 0.54 0.37 0.43 0.63 0.72 0.76 0.87 0.92 0.92 1.04 1.03 1.05 1.12 1.20 1.27 1.27 1.33 1.43 1.43
0.60 0.58 0.57 0.57 0.57 0.55 0.57 0.36 0.32 0.44 0.40 0.35 0.43 0.55 0.56 0.55 0.56 0.39 0.24 0.13 0.08 0.13 0.21 0.18 0.32 0.24 0.35 0.26 0.27 0.25 0.24 0.20 0.27 0.27 0.32 0.31 0.35 0.30 0.32 0.30 0.32 0.25 0.28 0.29 0.30 0.31 0.33 0.39 0.39 0.37 0.37 0.36 0.36 0.34 0.34 0.32 0.28 0.26 0.26 0.29 0.30 0.34 0.39 0.41 0.44 0.43 0.35 0.30 0.52 0.62 0.34 0.33 0.59 0.64 0.74 0.82 0.84 0.86 0.99 1.01 1.04 1.11 1.19 1.23 1.26 1.33 1.35 1.39
0.55 0.54 0.55 0.56 0.57 0.57 0.37 0.29 0.50 0.43 0.32 0.33 0.49 0.55 0.53 0.53 0.54 0.35 0.16 0.08 0.06 0.13 0.12 0.22 0.24 0.28 0.31 0.29 0.25 0.22 0.12 0.14 0.24 0.26 0.28 0.37 0.30 0.36 0.29 0.26 0.29 0.30 0.32 0.34 0.27 0.24 0.34 0.35 0.36 0.37 0.36 0.35 0.33 0.32 0.34 0.32 0.29 0.26 0.30 0.32 0.36 0.37 0.37 0.37 0.37 0.36 0.36 0.52 0.59 0.58 0.50 0.37 0.41 0.60 0.78 0.84 0.79 0.82 0.88 0.97 1.03 1.11 1.17 1.20 1.26 1.31 1.34 1.38
0.50 0.49 0.50 0.52 0.54 0.55 0.40 0.49 0.42 0.35 0.38 0.45 0.56 0.52 0.51 0.51 0.45 0.35 0.17 0.05 0.04 0.17 0.14 0.19 0.24 0.32 0.29 0.27 0.26 0.17 0.14 0.20 0.14 0.20 0.26 0.38 0.35 0.35 0.29 0.29 0.26 0.26 0.29 0.27 0.16 0.26 0.33 0.33 0.34 0.33 0.34 0.33 0.32 0.35 0.36 0.34 0.30 0.29 0.32 0.37 0.34 0.37 0.37 0.40 0.39 0.39 0.43 0.41 0.39 0.48 0.57 0.40 0.39 0.59 0.80 0.83 0.69 0.74 0.80 0.91 0.99 1.08 1.17 1.21 1.24 1.29 1.34 1.39
0.49 0.48 0.48 0.49 0.52 0.55 0.54 0.44 0.40 0.35 0.48 0.55 0.56 0.51 0.50 0.50 0.34 0.25 0.15 0.05 0.20 0.15 0.24 0.18 0.29 0.26 0.27 0.27 0.23 0.19 0.15 0.19 0.14 0.18 0.23 0.34 0.36 0.35 0.26 0.30 0.31 0.30 0.31 0.28 0.20 0.28 0.35 0.35 0.35 0.35 0.33 0.31 0.35 0.37 0.37 0.34 0.30 0.32 0.34 0.38 0.42 0.43 0.46 0.45 0.41 0.41 0.43 0.38 0.32 0.43 0.54 0.36 0.37 0.56 0.64 0.79 0.70 0.69 0.78 0.89 0.99 1.08 1.15 1.21 1.22 1.26 1.32 1.37
0.51 0.48 0.47 0.48 0.47 0.46 0.45 0.48 0.39 0.47 0.58 0.59 0.54 0.51 0.51 0.37 0.29 0.15 0.08 0.05 0.22 0.14 0.18 0.22 0.20 0.18 0.23 0.22 0.21 0.20 0.14 0.16 0.18 0.20 0.20 0.20 0.28 0.30 0.30 0.32 0.30 0.28 0.26 0.27 0.25 0.30 0.36 0.39 0.39 0.33 0.32 0.36 0.36 0.37 0.38 0.36 0.34 0.35 0.34 0.33 0.35 0.38 0.42 0.44 0.43 0.43 0.39 0.30 0.35 0.46 0.54 0.47 0.34 0.50 0.59 0.60 0.64 0.75 0.82 0.90 1.02 1.11 1.17 1.23 1.26 1.26 1.29 1.32
0.52 0.50 0.46 0.47 0.35 0.43 0.44 0.30 0.37 0.53 0.61 0.58 0.50 0.41 0.36 0.30 0.19 0.10 0.05 0.06 0.20 0.20 0.22 0.20 0.19 0.19 0.19 0.20 0.19 0.20 0.16 0.16 0.15 0.17 0.18 0.20 0.18 0.22 0.25 0.24 0.27 0.23 0.23 0.23 0.20 0.27 0.31 0.33 0.31 0.32 0.36 0.36 0.36 0.35 0.38 0.37 0.36 0.33 0.30 0.30 0.29 0.31 0.38 0.37 0.36 0.40 0.28 0.26 0.40 0.49 0.52 0.55 0.32 0.45 0.63 0.76 0.87 0.89 0.87 0.86 0.94 1.03 1.11 1.18 1.24 1.27 1.29 1.33
0.53 0.50 0.49 0.42 0.43 0.51 0.31 0.31 0.47 0.56 0.54 0.54 0.45 0.30 0.25 0.15 0.19 0.08 0.07 0.23 0.14 0.19 0.20 0.20 0.20 0.18 0.18 0.20 0.21 0.21 0.16 0.15 0.16 0.15 0.15 0.16 0.14 0.14 0.15 0.16 0.19 0.15 0.14 0.16 0.15 0.21 0.24 0.26 0.29 0.30 0.37 0.33 0.32 0.30 0.35 0.36 0.34 0.31 0.29 0.28 0.23 0.22 0.22 0.20 0.27 0.22 0.26 0.27 0.42 0.52 0.55 0.46 0.41 0.53 0.70 0.81 0.86 0.92 0.97 0.98 1.00 1.06 1.13 1.19 1.25 1.28 1.31 1.35
0.55 0.52 0.51 0.46 0.44 0.38 0.40 0.53 0.58 0.52 0.49 0.48 0.32 0.30 0.19 0.14 0.08 0.11 0.14 0.20 0.17 0.25 0.25 0.28 0.20 0.18 0.18 0.18 0.18 0.21 0.21 0.15 0.16 0.16 0.16 0.18 0.14 0.13 0.16 0.14 0.20 0.16 0.11 0.15 0.15 0.16 0.15 0.20 0.21 0.24 0.29 0.32 0.30 0.26 0.30 0.29 0.30 0.28 0.25 0.25 0.21 0.18 0.17 0.16 0.21 0.27 0.30 0.38 0.50 0.49 0.58 0.40 0.50 0.60 0.79 0.81 0.92 1.00 1.03 1.06 1.11 1.14 1.16 1.20 1.25 1.30 1.34 1.37
0.54 0.53 0.45 0.47 0.42 0.40 0.44 0.53 0.53 0.53 0.40 0.34 0.26 0.22 0.20 0.11 0.08 0.25 0.19 0.22 0.24 0.34 0.33 0.33 0.27 0.20 0.18 0.17 0.18 0.20 0.18 0.19 0.17 0.16 0.16 0.15 0.14 0.13 0.14 0.17 0.20 0.19 0.16 0.19 0.14 0.15 0.11 0.10 0.13 0.17 0.19 0.27 0.27 0.28 0.30 0.29 0.29 0.28 0.28 0.24 0.21 0.19 0.17 0.16 0.20 0.19 0.23 0.27 0.41 0.57 0.41 0.37 0.36 0.50 0.84 0.94 1.02 1.05 1.10 1.12 1.16 1.21 1.24 1.27 1.31 1.34 1.37 1.38
0.54 0.51 0.50 0.51 0.44 0.43 0.43 0.49 0.51 0.50 0.40 0.28 0.21 0.18 0.12 0.11 0.13 0.12 0.18 0.26 0.34 0.33 0.32 0.37 0.28 0.21 0.18 0.18 0.20 0.20 0.19 0.16 0.18 0.18 0.16 0.14 0.14 0.14 0.14 0.15 0.19 0.21 0.21 0.14 0.18 0.17 0.14 0.13 0.18 0.21 0.23 0.25 0.24 0.29 0.32 0.31 0.28 0.29 0.29 0.27 0.21 0.21 0.23 0.17 0.24 0.26 0.27 0.29 0.32 0.41 0.39 0.53 0.51 0.85 0.95 1.01 1.04 1.03 1.08 1.11 1.14 1.15 1.22 1.25 1.26 1.29 1.33 1.36
0.49 0.45 0.49 0.45 0.37 0.38 0.45 0.49 0.51 0.46 0.36 0.23 0.16 0.13 0.13 0.14 0.11 0.25 0.29 0.41 0.37 0.30 0.33 0.34 0.27 0.20 0.19 0.18 0.19 0.18 0.20 0.17 0.17 0.18 0.18 0.16 0.17 0.16 0.18 0.19 0.19 0.20 0.20 0.14 0.18 0.13 0.15 0.12 0.19 0.23 0.25 0.26 0.29 0.31 0.30 0.31 0.22 0.27 0.25 0.22 0.24 0.31 0.28 0.28 0.32 0.38 0.39 0.31 0.29 0.51 0.45 0.56 0.76 0.79 0.90 0.94 0.93 0.96 1.03 1.06 1.09 1.10 1.16 1.21 1.21 1.26 1.31 1.33
0.40 0.44 0.36 0.43 0.40 0.43 0.47 0.50 0.50 0.42 0.30 0.21 0.14 0.11 0.16 0.17 0.23 0.30 0.38 0.36 0.36 0.35 0.34 0.24 0.25 0.21 0.18 0.18 0.18 0.17 0.18 0.19 0.20 0.18 0.16 0.19 0.16 0.17 0.19 0.20 0.23 0.24 0.23 0.22 0.19 0.23 0.16 0.16 0.24 0.25 0.24 0.29 0.31 0.31 0.30 0.30 0.30 0.27 0.22 0.27 0.37 0.45 0.40 0.26 0.21 0.31 0.29 0.22 0.29 0.44 0.40 0.44 0.47 0.39 0.79 0.83 0.84 0.89 0.96 1.00 1.05 1.09 1.14 1.14 1.19 1.23 1.26 1.29
0.37 0.39 0.44 0.41 0.41 0.47 0.51 0.52 0.47 0.36 0.28 0.19 0.12 0.17 0.27 0.15 0.31 0.32 0.38 0.36 0.34 0.34 0.33 0.29 0.30 0.27 0.20 0.19 0.18 0.18 0.19 0.17 0.19 0.19 0.17 0.19 0.17 0.21 0.19 0.20 0.24 0.24 0.26 0.25 0.20 0.23 0.23 0.18 0.23 0.28 0.28 0.30 0.32 0.30 0.28 0.30 0.31 0.29 0.28 0.40 0.25 0.23 0.23 0.32 0.28 0.22 0.21 0.22 0.27 0.36 0.46 0.46 0.50 0.47 0.66 0.70 0.76 0.82 0.89 0.98 1.01 1.02 1.08 1.11 1.16 1.21 1.26 1.32
0.40 0.42 0.30 0.38 0.47 0.49 0.51 0.52 0.43 0.29 0.22 0.14 0.14 0.13 0.20 0.20 0.25 0.26 0.30 0.34 0.36 0.35 0.31 0.32 0.29 0.27 0.24 0.19 0.20 0.19 0.18 0.15 0.19 0.18 0.16 0.19 0.17 0.22 0.21 0.22 0.22 0.25 0.26 0.27 0.23 0.25 0.26 0.21 0.23 0.29 0.28 0.29 0.30 0.29 0.23 0.26 0.30 0.32 0.34 0.29 0.29 0.26 0.26 0.25 0.26 0.30 0.27 0.26 0.26 0.30 0.39 0.35 0.51 0.56 0.68 0.72 0.80 0.84 0.89 0.93 0.97 1.03 1.08 1.11 1.13 1.18 1.22 1.26
0.40 0.31 0.23 0.42 0.46 0.53 0.54 0.49 0.33 0.24 0.18 0.12 0.15 0.15 0.23 0.17 0.20 0.27 0.30 0.31 0.30 0.31 0.30 0.30 0.32 0.29 0.26 0.23 0.20 0.18 0.19 0.17 0.17 0.19 0.19 0.21 0.20 0.24 0.24 0.25 0.23 0.23 0.25 0.28 0.28 0.30 0.25 0.27 0.21 0.26 0.29 0.29 0.25 0.27 0.26 0.27 0.26 0.26 0.26 0.25 0.28 0.30 0.36 0.35 0.38 0.33 0.27 0.27 0.28 0.28 0.28 0.37 0.53 0.72 0.74 0.78 0.84 0.88 0.91 0.92 0.98 1.03 1.08 1.13 1.16 1.18 1.22 1.27
0.49 0.33 0.31 0.48 0.50 0.55 0.50 0.35 0.22 0.17 0.15 0.21 0.22 0.19 0.20 0.16 0.21 0.25 0.29 0.34 0.34 0.37 0.32 0.32 0.31 0.29 0.28 0.23 0.19 0.19 0.18 0.18 0.18 0.18 0.20 0.20 0.21 0.18 0.23 0.24 0.24 0.22 0.25 0.27 0.28 0.29 0.26 0.25 0.23 0.25 0.25 0.24 0.27 0.32 0.32 0.29 0.29 0.28 0.28 0.27 0.29 0.28 0.28 0.24 0.25 0.42 0.40 0.32 0.29 0.28 0.26 0.38 0.62 0.88 0.85 0.84 0.90 0.94 0.98 0.98 1.00 1.04 1.08 1.12 1.15 1.21 1.26 1.28
0.42 0.28 0.32 0.51 0.52 0.51 0.35 0.20 0.21 0.27 0.18 0.14 0.14 0.20 0.17 0.25 0.25 0.26 0.32 0.34 0.36 0.33 0.39 0.37 0.35 0.33 0.30 0.28 0.25 0.21 0.19 0.18 0.19 0.19 0.20 0.19 0.21 0.21 0.22 0.25 0.23 0.25 0.24 0.24 0.27 0.31 0.31 0.29 0.26 0.23 0.24 0.25 0.29 0.36 0.39 0.36 0.32 0.30 0.29 0.29 0.34 0.32 0.30 0.28 0.23 0.30 0.40 0.41 0.44 0.40 0.31 0.35 0.77 0.92 0.92 0.92 0.95 1.00 1.03 1.03 1.00 1.04 1.08 1.12 1.16 1.22 1.28 1.33
0.42 0.33 0.53 0.52 0.54 0.45 0.25 0.18 0.23 0.19 0.15 0.17 0.25 0.23 0.27 0.26 0.26 0.33 0.33 0.36 0.35 0.38 0.37 0.36 0.35 0.31 0.31 0.29 0.27 0.26 0.23 0.21 0.21 0.20 0.20 0.21 0.21 0.23 0.24 0.24 0.26 0.26 0.29 0.29 0.30 0.32 0.34 0.28 0.24 0.25 0.27 0.31 0.38 0.41 0.44 0.42 0.36 0.31 0.32 0.35 0.34 0.29 0.32 0.32 0.32 0.37 0.35 0.41 0.37 0.37 0.30 0.39 0.76 0.95 0.96 0.99 1.02 1.05 1.07 1.05 1.01 1.03 1.07 1.12 1.16 1.21 1.26 1.31
0.43 0.38 0.42 0.54 0.58 0.46 0.22 0.12 0.14 0.16 0.19 0.25 0.25 0.23 0.29 0.28 0.31 0.33 0.36 0.38 0.38 0.37 0.37 0.36 0.36 0.36 0.30 0.33 0.29 0.26 0.26 0.21 0.24 0.22 0.21 0.23 0.21 0.24 0.24 0.24 0.24 0.24 0.26 0.28 0.27 0.35 0.26 0.30 0.26 0.23 0.22 0.26 0.31 0.36 0.37 0.40 0.38 0.34 0.33 0.38 0.42 0.42 0.43 0.45 0.45 0.49 0.36 0.40 0.40 0.33 0.27 0.35 0.69 0.94 0.98 1.00 0.99 0.97 0.98 1.02 1.05 1.01 1.06 1.11 1.16 1.21 1.27 1.32
0.46 0.49 0.48 0.52 0.57 0.48 0.27 0.23 0.21 0.21 0.21 0.21 0.21 0.21 0.24 0.30 0.36 0.40 0.42 0.38 0.42 0.40 0.38 0.36 0.37 0.36 0.33 0.33 0.29 0.29 0.29 0.26 0.24 0.25 0.24 0.24 0.23 0.26 0.25 0.25 0.25 0.24 0.26 0.29 0.30 0.33 0.28 0.31 0.26 0.22 0.20 0.19 0.19 0.20 0.24 0.28 0.34 0.40 0.43 0.43 0.47 0.44 0.42 0.40 0.35 0.38 0.32 0.42 0.42 0.36 0.34 0.47 0.72 0.86 0.89 0.91 0.92 0.90 0.95 0.98 1.04 1.09 1.08 1.09 1.13 1.18 1.24 1.29
0.43 0.34 0.45 0.47 0.51 0.48 0.42 0.39 0.32 0.26 0.23 0.23 0.21 0.25 0.30 0.31 0.41 0.47 0.45 0.43 0.44 0.44 0.43 0.41 0.40 0.38 0.33 0.31 0.28 0.27 0.28 0.30 0.26 0.25 0.24 0.23 0.24 0.26 0.27 0.27 0.25 0.26 0.26 0.31 0.32 0.31 0.29 0.34 0.29 0.27 0.24 0.23 0.27 0.30 0.39 0.42 0.40 0.35 0.41 0.45 0.46 0.48 0.48 0.45 0.42 0.37 0.33 0.40 0.38 0.42 0.42 0.46 0.55 0.68 0.74 0.81 0.83 0.82 0.85 0.93 0.98 1.02 1.07 1.11 1.14 1.18 1.22 1.25
0.53 0.40 0.44 0.38 0.45 0.45 0.41 0.39 0.33 0.31 0.28 0.33 0.24 0.32 0.34 0.38 0.45 0.47 0.52 0.44 0.45 0.46 0.44 0.40 0.37 0.32 0.30 0.29 0.27 0.27 0.29 0.29 0.30 0.26 0.26 0.25 0.26 0.27 0.32 0.30 0.28 0.29 0.34 0.33 0.33 0.30 0.30 0.28 0.30 0.29 0.28 0.28 0.31 0.33 0.39 0.41 0.36 0.40 0.41 0.42 0.46 0.46 0.47 0.44 0.39 0.36 0.44 0.41 0.35 0.45 0.50 0.43 0.46 0.60 0.70 0.75 0.81 0.84 0.89 0.95 1.00 1.04 1.05 1.07 1.11 1.16 1.21 1.23
0.39 0.51 0.58 0.60 0.41 0.39 0.38 0.39 0.39 0.37 0.42 0.39 0.35 0.42 0.42 0.41 0.47 0.44 0.52 0.50 0.50 0.51 0.41 0.39 0.39 0.37 0.34 0.30 0.29 0.25 0.27 0.28 0.27 0.24 0.26 0.26 0.25 0.28 0.28 0.29 0.27 0.40 0.37 0.33 0.36 0.30 0.28 0.25 0.31 0.31 0.31 0.35 0.37 0.38 0.41 0.41 0.43 0.44 0.45 0.45 0.44 0.48 0.47 0.43 0.44 0.48 0.47 0.38 0.34 0.41 0.50 0.43 0.49 0.60 0.71 0.78 0.84 0.84 0.90 0.98 1.04 1.07 1.08 1.08 1.10 1.11 1.12 1.14
0.56 0.63 0.63 0.74 0.47 0.52 0.49 0.49 0.46 0.45 0.45 0.45 0.42 0.47 0.44 0.46 0.47 0.53 0.52 0.48 0.49 0.48 0.46 0.37 0.34 0.37 0.37 0.35 0.30 0.27 0.28 0.25 0.25 0.29 0.27 0.26 0.25 0.28 0.28 0.32 0.36 0.41 0.35 0.32 0.33 0.34 0.31 0.30 0.34 0.35 0.34 0.37 0.40 0.42 0.45 0.41 0.45 0.46 0.47 0.49 0.51 0.50 0.49 0.50 0.51 0.55 0.49 0.44 0.46 0.49 0.51 0.50 0.58 0.66 0.74 0.84 0.93 0.95 1.00 1.08 1.08 1.04 1.01 1.03 1.04 1.06 1.07 1.11
0.48 0.49 0.51 0.66 0.63 0.57 0.56 0.55 0.48 0.45 0.40 0.47 0.39 0.53 0.51 0.53 0.50 0.54 0.58 0.50 0.41 0.45 0.48 0.39 0.37 0.39 0.38 0.36 0.33 0.29 0.30 0.31 0.30 0.28 0.31 0.28 0.27 0.30 0.29 0.30 0.31 0.32 0.33 0.31 0.31 0.34 0.30 0.34 0.39 0.38 0.33 0.36 0.43 0.47 0.48 0.47 0.46 0.45 0.52 0.54 0.54 0.54 0.54 0.56 0.55 0.55 0.55 0.52 0.54 0.55 0.52 0.51 0.70 0.81 0.84 0.94 0.99 1.03 1.04 1.01 0.99 1.00 1.01 1.01 1.00 1.01 1.06 1.10
0.68 0.73 0.73 0.54 0.42 0.48 0.53 0.53 0.45 0.40 0.36 0.41 0.42 0.58 0.58 0.57 0.54 0.59 0.55 0.59 0.49 0.44 0.44 0.41 0.42 0.39 0.40 0.36 0.35 0.34 0.35 0.36 0.35 0.35 0.34 0.30 0.27 0.32 0.29 0.29 0.31 0.29 0.30 0.30 0.30 0.32 0.33 0.37 0.42 0.39 0.30 0.36 0.45 0.46 0.47 0.50 0.50 0.48 0.49 0.51 0.52 0.51 0.47 0.52 0.50 0.56 0.50 0.46 0.53 0.54 0.47 0.48 0.68 0.85 0.89 0.94 0.96 0.95 0.93 0.95 0.95 0.97 1.00 1.00 0.99 1.02 1.07 1.11
0.71 0.82 0.79 0.65 0.43 0.57 0.44 0.50 0.49 0.38 0.31 0.45 0.50 0.61 0.58 0.56 0.62 0.63 0.49 0.54 0.57 0.55 0.52 0.47 0.47 0.41 0.37 0.35 0.34 0.36 0.39 0.39 0.39 0.39 0.37 0.35 0.34 0.35 0.34 0.33 0.32 0.31 0.29 0.29 0.34 0.30 0.33 0.36 0.35 0.35 0.30 0.37 0.47 0.50 0.47 0.46 0.44 0.39 0.43 0.51 0.55 0.57 0.59 0.62 0.63 0.66 0.61 0.61 0.51 0.45 0.46 0.62 0.74 0.85 0.80 0.86 0.91 0.92 0.93 0.93 0.92 0.97 1.00 1.01 1.02 1.05 1.10 1.13
Wind_Speed
11 11 11 11 10 10 10 10 9 9 9 9 9 9 10 10 11 11 10 10 10 9 9 9 8 7 7 6 5 4 3 4 4 4 4 5 6 6 7 7 9 9 8 8 8 8 8 8 8 8 9 8 8 9 9 10 12 14 15 16 16 16 16 15 15 15 16 16 15 15 15 15 14 14 14 13 14 12 11 10 9 8 7 7 7 8 9 8
11 11 12 12 11 11 11 11 11 10 10 9 9 9 10 10 11 11 11 11 10 10 10 10 10 9 8 7 6 5 4 5 5 5 5 6 7 7 6 7 8 8 8 8 7 8 8 7 7 7 7 7 7 8 9 9 10 12 14 15 15 14 15 15 15 15 16 16 16 16 15 15 14 14 14 14 13 13 13 12 11 11 10 9 9 9 8 8
12 12 12 12 12 12 12 12 11 11 11 10 10 9 9 9 10 11 11 11 11 11 10 11 11 10 9 8 7 6 6 6 6 6 6 8 8 7 7 7 7 8 7 7 6 7 8 7 7 6 6 6 7 7 8 9 9 11 13 14 13 13 14 15 15 15 15 15 16 16 15 15 15 14 14 14 14 14 13 12 11 12 11 10 9 8 8 7
12 12 12 13 13 13 13 12 12 12 11 11 10 10 10 9 10 11 11 11 11 11 11 11 11 11 10 9 8 7 7 7 7 7 7 9 8 7 8 7 7 7 7 7 7 7 8 8 7 6 6 6 6 6 7 8 9 11 12 12 12 13 15 15 14 15 15 15 16 15 15 15 14 14 14 14 14 14 12 11 11 11 11 10 9 8 7 6
11 12 12 13 13 13 13 13 13 13 12 12 11 11 10 10 10 10 11 11 12 11 11 11 11 11 11 11 10 9 8 8 8 8 8 9 9 8 8 8 8 6 6 7 7 7 8 8 7 6 6 6 6 6 6 6 8 10 10 10 12 12 14 14 14 14 15 15 16 15 15 14 14 15 15 14 14 13 12 11 11 12 11 10 9 8 6 5
12 12 12 13 14 14 14 14 14 13 13 13 12 12 11 11 11 11 11 12 12 12 12 12 12 11 11 12 11 11 11 10 9 9 9 9 9 9 9 8 8 6 6 6 6 7 8 7 7 6 6 6 5 5 5 5 7 10 9 11 13 12 12 13 13 14 14 15 15 15 14 14 14 15 15 15 15 13 13 12 12 12 11 10 9 8 7 6
12 12 12 13 14 14 14 14 14 14 14 14 13 13 12 12 11 11 12 12 12 12 12 12 12 12 11 12 13 12 13 12 10 9 9 10 9 9 8 8 8 6 4 5 5 5 6 6 5 5 6 6 5 4 5 5 6 9 9 11 12 12 12 12 12 13 14 14 14 14 15 15 15 14 14 15 14 14 13 13 12 11 11 10 9 8 7 7
13 13 13 13 14 14 15 15 15 15 15 14 14 13 13 12 12 12 12 12 13 13 13 12 12 12 11 13 14 13 14 14 12 11 10 10 10 9 9 8 7 6 4 3 3 4 5 5 3 4 5 6 5 3 5 7 7 8 8 9 11 11 10 11 12 13 14 14 14 15 15 15 15 14 14 14 13 13 13 12 12 11 11 10 9 8 8 8
14 14 14 14 14 14 15 15 16 16 15 15 15 14 14 13 13 12 12 12 13 13 13 13 12 12 12 13 14 15 17 16 13 12 11 11 10 10 9 8 8 6 4 2 1 3 3 3 4 4 4 6 5 3 4 6 7 7 8 8 10 10 9 10 11 13 13 13 13 15 14 13 14 14 14 13 12 12 12 12 11 10 10 10 9 8 8 8
14 14 14 14 14 14 15 15 16 16 16 16 16 15 14 14 13 13 12 12 12 13 13 13 12 12 12 13 15 16 18 17 14 13 12 11 11 11 9 8 8 7 4 2 1 2 2 2 4 5 4 5 5 4 4 4 5 7 8 9 9 9 8 8 10 11 12 12 12 13 11 11 12 13 13 12 12 12 12 11 10 10 9 9 9 8 7 7
15 15 15 15 15 15 15 15 16 16 16 16 16 16 15 15 14 14 13 13 13 13 13 13 12 12 13 14 16 18 18 17 15 14 13 12 12 11 10 9 8 7 5 2 2 1 0 1 3 5 4 5 5 5 5 4 5 6 7 9 9 8 8 8 8 9 10 11 11 11 11 11 13 13 12 11 11 12 11 11 10 9 9 8 8 8 7 6
15 15 15 15 15 15 15 15 16 16 17 17 16 16 16 16 15 14 14 13 13 13 12 13 12 13 13 14 18 20 19 18 17 15 15 14 13 13 11 10 9 8 6 4 2 2 1 1 3 4 4 4 5 5 5 5 5 6 6 7 7 8 8 7 7 8 9 9 8 10 11 12 12 12 11 11 11 12 12 11 10 10 9 8 8 7 7 7
16 16 16 16 16 15 15 15 16 16 17 17 17 17 17 16 16 15 14 14 13 13 12 12 13 13 13 14 18 20 20 19 18 17 16 15 15 14 13 12 10 9 7 5 4 3 2 2 2 2 3 4 5 5 4 5 5 5 5 5 5 7 6 5 6 6 7 7 7 10 11 9 10 11 11 11 11 11 12 11 10 9 9 8 8 7 7 7
16 16 16 16 16 16 15 15 15 16 17 17 17 17 17 17 17 16 15 15 14 13 13 12 12 13 13 15 17 19 20 19 19 18 17 16 15 14 13 12 11 9 8 7 5 4 3 2 1 2 3 4 4 5 6 6 5 4 5 5 4 5 4 4 5 5 6 5 7 10 9 7 8 10 11 10 11 11 11 12 11 9 9 8 7 7 7 7
16 16 16 16 16 16 15 15 15 16 16 17 17 17 17 17 17 17 16 16 15 14 13 12 12 12 13 15 16 18 20 19 19 19 18 17 16 15 13 12 11 10 9 8 6 5 3 2 0 1 2 3 5 6 6 6 5 4 3 4 4 3 4 5 4 4 4 5 6 9 8 7 7 8 9 10 10 11 11 12 11 10 9 8 7 7 7 7
16 16 16 16 15 15 15 15 15 15 16 16 17 17 17 18 18 17 17 16 15 14 13 12 12 12 12 14 14 17 20 20 20 19 18 18 17 16 14 12 11 10 9 8 7 5 4 2 1 0 1 3 4 5 6 5 5 4 3 3 3 2 2 4 3 2 3 4 6 7 7 7 7 7 8 9 9 10 11 12 11 10 9 8 7 7 7 7
16 16 16 15 15 15 14 14 14 14 15 16 16 17 17 17 17 17 17 16 15 14 13 13 12 12 13 13 13 16 19 20 20 19 18 18 18 17 14 13 11 10 9 8 7 6 5 3 2 1 1 3 3 5 6 5 5 5 4 4 4 2 1 2 3 2 3 3 4 6 7 7 8 6 7 7 8 9 10 11 11 10 8 8 7 8 8 7
16 16 15 15 14 14 14 13 13 13 14 15 16 16 16 16 17 17 16 16 15 14 14 14 12 12 13 13 13 15 18 20 19 19 18 18 18 17 15 14 12 11 10 9 8 6 5 4 4 2 2 3 3 4 5 5 5 5 4 4 4 3 2 2 3 2 2 3 3 4 6 6 8 6 6 7 7 8 9 10 10 9 8 8 8 8 8 8
16 16 15 14 14 13 13 13 12 13 13 13 14 15 15 15 15 16 16 16 16 15 14 14 13 12 12 13 14 15 18 19 19 19 19 18 17 16 15 14 13 12 11 10 9 7 6 5 4 3 3 2 2 3 4 4 5 5 4 3 3 3 3 2 3 2 2 3 3 2 3 5 7 6 5 6 6 7 9 9 10 9 8 8 8 8 8 8
15 15 15 14 13 13 12 12 12 12 12 12 13 13 13 13 14 15 16 16 17 17 16 15 14 14 13 13 13 14 16 19 20 20 19 17 17 16 15 14 13 12 12 12 10 8 7 5 5 6 5 4 3 3 4 5 4 5 3 2 3 3 3 3 3 3 2 2 3 2 2 5 6 5 5 5 5 6 8 8 9 8 7 7 7 7 7 8
15 15 14 14 13 12 12 11 11 11 11 11 12 12 12 13 13 14 15 16 18 18 18 17 15 15 14 13 13 13 15 18 20 20 19 18 17 16 15 14 13 13 13 13 11 9 7 7 8 8 6 6 4 4 5 5 4 4 2 1 2 3 4 4 2 2 1 1 2 2 2 4 5 5 5 5 4 6 6 7 8 8 7 7 7 7 7 8
15 15 14 13 13 12 11 11 11 11 11 11 11 11 12 12 13 14 15 16 17 18 18 17 16 16 15 14 14 14 15 17 19 21 20 18 17 16 15 14 14 15 13 12 11 9 8 9 10 9 6 5 4 4 5 4 3 3 2 1 3 3 3 5 3 2 3 0 2 2 2 4 6 5 5 5 4 6 7 6 7 7 7 7 7 7 7 8
15 14 14 13 13 12 11 11 11 10 10 10 10 11 11 11 12 14 14 16 16 17 18 18 17 16 15 14 14 15 16 17 19 20 20 19 18 17 16 14 14 15 13 12 13 11 10 10 10 8 5 4 5 6 4 4 2 2 1 2 4 3 2 3 3 2 3 1 2 1 2 4 5 5 6 6 5 6 7 7 8 8 7 7 7 7 7 8
14 14 14 13 12 12 11 11 11 10 10 10 10 11 10 10 11 13 14 15 16 16 17 19 17 16 16 14 13 14 16 17 18 19 20 20 18 17 16 15 14 14 14 14 14 13 13 12 10 7 4 4 5 6 4 3 3 2 2 3 4 3 2 2 2 1 2 3 2 1 3 5 4 5 6 6 6 6 7 7 8 8 8 8 8 7 8 8
14 13 13 13 12 12 11 11 10 10 10 10 10 10 10 10 11 12 13 13 15 16 16 18 17 17 17 14 13 14 14 16 18 18 18 20 19 17 16 15 14 15 15 15 14 14 14 12 10 7 5 5 4 5 4 2 4 5 4 3 3 2 1 1 1 1 1 3 4 1 3 5 5 5 6 6 6 6 7 8 9 9 9 8 8 8 8 9
13 13 13 13 12 12 11 11 10 10 10 10 10 10 9 10 10 11 11 11 13 16 16 17 17 17 17 15 15 14 12 14 18 18 18 19 19 17 16 15 14 15 15 15 14 14 14 11 9 9 7 5 4 5 6 3 2 5 4 3 2 1 1 1 3 2 2 4 4 2 2 5 6 5 5 5 5 6 7 8 9 9 9 9 8 9 9 10
13 13 13 13 12 12 11 11 11 10 10 10 10 9 9 9 9 10 10 9 12 14 15 16 16 17 17 16 15 14 13 14 16 17 18 19 19 17 16 16 15 15 15 15 14 14 13 11 9 9 7 6 5 6 6 3 1 5 5 2 1 0 1 2 3 3 4 3 3 3 3 4 6 6 5 4 4 6 7 8 9 9 9 9 9 10 10 10
12 12 12 13 12 12 12 11 11 11 10 10 9 9 9 9 9 9 9 9 10 12 14 16 16 16 16 16 17 16 14 13 14 16 17 18 18 17 16 17 16 15 15 15 16 16 13 12 11 10 8 8 8 8 7 5 4 6 5 3 2 2 2 3 3 4 4 3 3 5 4 3 5 6 6 4 5 7 7 8 9 9 9 9 10 11 11 10
11 12 12 12 12 12 12 12 11 11 10 10 9 9 9 9 9 8 8 9 9 9 11 14 16 16 16 16 18 17 14 12 13 15 16 17 18 17 16 17 16 16 15 15 17 17 14 13 12 11 10 11 11 10 8 7 6 6 4 4 4 3 4 4 4 3 3 3 5 7 4 3 6 6 6 6 6 8 8 9 10 10 9 9 10 10 10 10
11 11 11 11 12 12 12 12 12 11 10 10 10 9 9 9 8 7 8 9 9 9 10 12 15 16 15 15 16 16 15 14 13 13 14 16 17 16 16 16 15 15 15 14 16 18 16 14 13 12 12 13 12 11 9 8 7 5 3 4 3 4 4 5 5 3 3 5 6 6 4 2 6 7 6 6 7 8 8 8 10 9 9 9 10 10 10 10
10 10 11 11 11 12 12 12 12 11 11 10 9 9 9 9 8 8 8 9 9 9 9 11 14 15 16 16 16 16 15 15 14 13 13 14 15 15 16 16 15 14 14 14 15 16 15 14 14 14 13 12 11 11 10 8 7 6 5 5 4 5 5 5 7 5 3 5 5 5 4 3 5 7 7 7 8 8 8 8 9 8 8 9 9 10 9 9
10 10 10 11 12 12 12 12 11 11 11 10 9 8 9 8 9 9 9 8 8 8 9 11 13 14 15 15 15 16 16 15 15 14 14 13 14 16 16 17 16 14 14 15 15 15 16 17 15 14 14 13 11 11 11 9 7 6 7 7 6 6 6 6 7 5 5 6 4 3 3 4 7 8 8 9 9 9 10 10 9 8 8 8 9 10 9 9
9 10 10 11 12 12 13 12 11 10 10 10 9 8 9 8 9 10 9 7 7 8 9 10 12 14 15 15 15 16 16 16 16 15 14 13 13 15 16 16 16 14 14 14 14 14 16 17 16 14 15 14 12 12 12 11 9 7 7 7 7 6 6 7 7 6 6 6 4 4 5 6 8 9 10 10 9 10 11 12 10 8 8 8 9 9 9 9
9 9 10 11 12 13 14 12 11 10 9 10 9 9 9 9 9 10 10 8 8 8 8 9 12 14 14 15 16 15 15 16 16 14 14 13 13 14 15 15 15 14 13 13 13 13 14 14 15 15 14 13 13 13 13 12 10 10 8 7 8 8 7 7 7 6 6 5 5 6 6 6 7 8 9 8 9 10 11 11 9 8 8 8 9 9 9 9
9 9 9 10 11 13 14 13 11 10 9 9 9 9 11 11 9 9 10 9 8 8 9 10 11 13 14 14 15 15 15 15 15 14 14 14 14 14 15 15 15 14 13 13 13 12 12 13 14 14 12 11 11 11 11 10 10 11 9 7 9 10 8 6 7 6 5 5 6 6 7 7 8 8 8 7 8 9 9 9 8 7 8 8 9 10 9 9
9 9 9 10 10 12 13 13 11 10 10 9 9 10 12 12 10 10 10 8 8 8 8 8 10 11 13 14 14 14 14 14 14 14 14 14 14 15 14 14 14 14 14 13 13 11 10 12 12 10 10 11 11 11 11 10 10 9 8 8 10 9 6 5 6 6 5 5 6 7 8 9 8 8 8 7 8 9 9 9 8 8 9 9 10 10 10 10
8 9 9 9 10 11 12 13 11 10 10 9 9 11 12 12 11 11 10 8 7 7 6 7 9 11 12 13 14 14 13 13 14 14 14 13 13 14 14 13 13 15 15 13 12 11 10 10 10 10 10 10 10 10 10 10 9 8 8 9 8 6 5 5 5 6 5 6 7 7 8 9 8 8 8 8 8 9 10 9 9 9 10 10 10 10 10 10
8 9 9 9 10 12 12 12 11 10 9 8 9 11 12 12 12 12 10 8 8 7 7 8 9 9 11 12 13 14 14 14 13 13 13 12 11 12 13 12 13 15 16 14 12 11 10 9 9 10 10 8 7 8 10 10 9 9 9 8 6 5 5 5 5 5 5 6 8 8 9 9 8 8 9 9 9 10 10 10 10 10 10 11 11 11 11 10
9 9 9 9 10 12 12 11 11 9 9 9 10 11 12 13 13 13 11 9 8 8 8 9 9 8 10 12 13 14 14 14 13 12 12 12 11 11 11 11 11 13 15 15 13 11 10 9 8 8 8 7 5 7 9 10 9 7 8 7 6 6 6 6 5 5 5 5 7 8 9 9 9 9 9 9 9 10 10 11 11 11 11 11 12 11 11 10
9 9 9 9 11 12 12 11 10 9 9 10 11 11 12 13 13 13 12 11 9 8 8 9 9 9 10 11 12 13 13 14 14 13 12 12 12 10 10 10 10 10 12 13 13 12 11 10 9 8 6 5 5 7 9 10 9 7 8 8 7 6 6 6 5 5 4 5 6 7 9 10 10 10 9 9 10 10 10 11 11 11 12 12 12 11 11 10
9 9 9 10 11 12 11 10 9 9 10 11 12 12 12 13 13 13 13 13 11 10 9 10 10 10 9 9 11 13 12 13 14 13 12 12 12 10 11 11 10 10 11 12 12 13 12 11 10 9 6 5 7 9 9 9 9 8 9 9 9 7 6 5 6 7 5 5 6 6 8 11 10 10 10 10 11 11 10 10 11 11 12 12 12 11 10 10
8 9 9 10 11 11 10 10 10 10 11 11 12 13 13 13 13 13 12 13 12 11 10 9 10 10 10 9 10 12 12 12 13 13 13 13 13 11 10 10 11 12 12 12 12 13 12 10 10 9 9 9 10 10 9 9 9 7 7 9 9 8 7 5 6 7 6 6 7 6 8 11 11 11 11 11 11 10 10 10 10 11 12 11 11 10 9 8
8 9 9 10 11 10 9 10 10 10 11 12 12 13 14 14 13 13 13 12 12 11 9 9 10 10 10 9 9 10 11 12 12 13 13 12 13 13 12 12 12 12 12 12 12 12 11 10 10 9 9 8 8 8 7 7 6 6 6 7 7 7 7 6 6 6 5 6 7 7 10 12 11 11 10 10 10 10 10 10 11 11 11 11 10 9 8 7
9 9 9 10 10 9 8 10 10 10 11 11 12 13 14 14 14 14 14 13 11 10 10 10 10 10 9 9 8 9 10 10 11 12 12 11 12 13 13 14 14 13 13 13 12 12 12 11 10 8 6 6 6 6 6 6 6 6 6 6 6 5 4 5 6 5 5 7 7 7 10 12 12 11 10 9 10 10 11 12 11 11 10 9 9 8 7 7
9 8 8 9 10 9 9 10 10 10 10 10 12 13 14 14 15 15 15 13 11 11 10 10 10 9 8 8 8 9 9 9 10 11 11 11 10 11 13 15 16 15 15 14 13 12 12 11 10 9 8 7 7 7 8 7 6 6 6 5 5 4 3 5 5 5 6 8 7 8 10 12 11 10 10 10 10 11 11 12 11 10 9 8 8 8 7 7
9 9 8 9 9 9 9 9 10 10 10 10 12 13 14 14 14 14 14 12 11 11 11 10 10 9 8 7 8 9 9 9 10 10 10 11 10 9 11 14 15 14 14 14 13 11 10 9 10 10 10 10 10 10 9 8 6 6 5 5 5 5 5 5 5 7 7 7 9 10 10 10 11 11 10 11 11 11 12 11 10 9 8 8 7 7 7 7
9 9 9 9 8 8 9 10 10 10 10 10 12 13 14 14 13 12 13 12 11 11 11 10 9 9 8 7 8 9 9 8 9 11 10 10 11 8 8 11 13 12 12 13 12 10 8 8 9 8 9 10 11 10 9 7 6 6 6 5 6 6 6 5 6 8 7 6 10 12 10 10 12 11 10 11 12 12 11 10 8 8 8 7 7 7 7 7
9 9 9 9 9 9 8 10 11 11 10 11 13 14 14 13 13 12 12 11 10 10 10 10 9 9 9 8 8 8 8 6 8 10 10 9 9 7 6 8 10 12 12 11 10 10 9 8 8 8 7 8 8 8 7 6 6 6 5 6 6 6 6 6 7 9 8 8 11 12 10 11 12 11 10 12 12 11 10 9 8 8 7 7 7 7 7 8
9 9 9 9 9 9 9 9 11 11 11 12 13 15 15 14 13 13 12 11 10 10 11 10 10 9 8 8 8 8 8 7 7 9 9 9 9 8 8 9 9 10 11 10 9 9 8 8 8 7 6 6 6 7 6 6 6 6 6 6 6 6 6 7 7 9 9 10 11 10 9 12 13 12 11 12 11 9 8 8 8 8 7 7 7 8 8 9
8 9 9 8 8 8 8 9 10 11 11 12 13 14 14 14 13 13 12 12 10 10 11 12 11 10 9 8 9 9 10 10 9 9 10 10 10 9 10 10 10 9 9 9 9 8 7 8 8 7 6 6 7 6 5 5 6 5 6 7 6 6 7 8 9 10 10 10 11 10 10 13 14 12 11 10 9 8 7 7 8 8 8 8 8 9 9 10
9 10 9 8 8 8 8 8 9 11 12 12 13 14 13 13 13 12 12 14 13 11 11 12 11 10 9 8 8 10 10 11 11 11 12 12 12 10 9 10 11 10 8 9 9 8 7 8 8 7 6 7 8 6 5 5 5 5 6 8 8 8 9 9 11 11 10 10 10 10 12 14 14 11 10 8 7 7 8 8 9 9 9 9 9 10 10 10
10 10 10 9 9 9 9 9 10 11 13 13 14 14 13 14 13 11 11 13 13 12 12 12 12 10 8 8 9 10 9 9 10 10 12 13 12 10 8 8 9 9 9 9 8 8 8 9 9 8 7 8 8 7 7 5 5 7 9 9 9 10 10 10 11 11 11 10 10 11 13 13 11 9 9 8 8 8 9 9 9 9 10 10 10 10 10 11
Wind_Direction
267 265 265 264 263 262 262 263 263 264 264 263 260 256 251 245 242 241 240 239 239 241 242 243 243 242 245 246 242 238 227 204 183 174 173 157 142 131 118 103 97 94 87 85 84 81 73 68 77 84 81 73 62 57 56 49 44 43 43 42 40 40 40 40 40 38 39 40 42 43 47 51 47 47 53 55 58 63 63 63 70 77 89 104 112 123 130 135
269 266 265 264 263 261 261 260 261 262 262 263 261 258 254 248 242 240 240 239 238 240 240 242 242 240 241 242 239 235 221 203 194 194 189 165 148 142 129 111 101 95 88 85 85 81 72 69 82 90 84 71 59 58 56 50 47 43 42 42 40 40 40 40 44 41 39 42 46 46 47 50 51 51 53 55 55 60 65 65 71 79 86 97 107 116 122 131
272 269 267 265 263 262 260 259 259 259 260 261 261 259 256 250 243 239 238 238 238 238 238 240 240 240 239 238 238 231 213 200 195 195 185 168 158 150 139 124 111 100 84 78 85 80 70 72 85 89 83 64 55 62 55 48 47 43 40 40 39 41 38 38 44 44 41 46 49 46 46 49 50 50 53 59 57 56 64 68 73 82 88 93 100 108 117 128
275 272 269 267 265 262 260 259 257 257 258 259 259 259 256 251 245 239 237 237 238 237 237 238 238 239 236 236 236 223 206 195 193 190 176 168 166 159 150 137 123 105 78 75 83 73 61 69 80 78 74 57 49 60 54 51 50 45 43 41 39 42 39 37 42 44 43 48 49 47 48 48 49 49 54 62 58 53 57 65 77 88 93 92 93 99 108 121
280 276 272 269 266 264 261 259 257 255 255 256 257 257 256 253 247 242 238 237 237 237 237 237 237 237 235 235 229 214 199 187 190 189 176 171 170 167 161 147 135 111 84 84 81 70 60 66 74 69 67 53 51 57 51 57 53 43 41 43 43 42 39 37 40 43 45 48 48 48 49 48 49 50 54 58 57 54 53 62 77 87 91 90 90 91 93 105
285 281 276 271 268 265 262 259 257 254 253 254 255 255 254 253 250 245 240 238 238 237 238 237 237 236 234 231 221 208 196 189 190 188 180 175 173 171 164 155 146 123 94 88 80 74 62 65 74 69 61 50 58 61 47 59 52 39 35 40 43 43 43 39 40 43 45 49 47 47 50 50 52 51 51 53 53 52 53 64 75 79 82 84 84 83 85 94
289 286 281 275 270 266 264 260 257 254 252 252 252 253 252 252 250 247 243 240 238 237 238 238 237 236 234 225 215 206 200 199 196 191 186 179 176 173 166 159 153 141 112 91 78 72 64 73 76 67 59 47 58 55 46 61 49 41 37 37 43 46 47 43 42 42 44 49 48 49 51 50 51 52 50 49 50 51 55 64 70 72 74 75 75 75 81 90
288 287 284 280 274 269 264 261 258 254 252 250 250 251 251 251 249 248 246 242 239 238 238 238 237 235 231 219 211 210 207 204 200 197 193 185 182 175 167 163 161 158 146 116 80 73 76 82 66 56 48 35 53 61 56 54 36 40 40 35 41 44 46 46 44 44 44 48 49 50 50 50 52 54 51 47 49 52 54 60 65 68 68 67 68 71 78 86
286 286 285 283 278 273 266 261 258 254 251 249 249 249 249 249 247 247 246 244 241 238 238 237 236 235 228 216 209 210 210 204 200 200 198 193 189 182 176 174 175 172 165 170 97 79 73 69 40 35 33 30 52 63 59 46 24 35 41 36 41 42 48 50 45 44 45 47 50 49 47 49 51 52 49 45 50 52 52 55 57 62 64 63 64 66 73 82
284 284 284 283 280 277 270 262 257 254 252 249 248 247 248 248 246 245 244 244 242 239 237 234 235 232 224 217 208 207 209 205 202 200 199 198 192 190 189 184 184 182 177 188 143 93 54 52 23 22 33 32 41 40 35 33 26 41 49 42 43 47 47 48 46 43 42 42 45 49 46 43 44 47 47 45 51 52 50 50 50 56 58 57 58 59 62 71
282 282 283 282 280 278 273 265 258 254 252 249 247 246 246 246 245 244 243 243 242 240 237 233 234 229 222 218 209 207 208 206 205 203 200 201 197 197 196 191 190 190 190 198 194 194 41 26 9 23 31 18 23 30 23 22 42 58 58 41 39 49 44 42 48 44 41 37 41 53 48 39 41 44 44 46 51 51 49 48 45 49 49 49 52 53 52 55
281 282 281 281 280 278 275 268 259 254 251 249 247 246 245 244 243 243 242 241 240 239 236 233 231 227 223 221 215 212 211 210 210 207 203 203 204 204 200 198 200 200 201 208 216 206 222 330 5 21 17 17 24 29 24 31 57 66 56 38 33 41 37 33 42 41 40 35 36 45 41 35 39 42 42 46 50 49 50 47 43 43 43 45 46 47 47 42
280 281 281 280 278 277 275 270 261 254 250 248 247 246 244 243 242 241 240 239 238 237 237 234 230 227 223 223 220 215 213 213 212 210 207 205 208 209 206 206 210 212 209 213 227 224 243 297 2 3 356 24 29 31 35 39 54 55 37 35 35 31 24 21 36 40 37 36 33 34 37 30 30 41 44 44 48 49 48 44 42 40 39 43 43 42 39 36
280 280 280 279 277 276 275 270 263 255 251 248 247 245 243 242 240 239 238 237 236 235 236 233 229 226 223 225 224 217 213 213 211 210 208 207 210 213 212 211 212 215 215 218 230 239 249 270 358 352 354 30 47 42 28 22 33 39 22 20 30 26 7 8 36 48 37 36 33 33 44 36 23 41 46 42 44 46 43 39 38 38 37 39 41 40 34 31
279 280 280 277 276 276 274 270 263 256 251 247 245 245 243 241 238 237 235 234 234 233 233 233 229 226 227 231 227 216 211 209 209 210 209 209 211 215 216 215 215 216 218 222 228 236 234 212 69 352 359 36 53 38 16 11 15 24 20 356 3 17 356 360 33 66 46 34 30 31 45 36 21 40 46 42 40 38 37 33 32 35 35 35 35 36 32 26
278 279 279 276 275 275 273 269 262 256 251 247 246 245 243 239 236 234 233 233 232 231 230 231 230 226 227 230 224 214 209 207 209 210 210 211 211 215 218 218 220 221 221 224 224 222 210 184 173 248 36 35 37 29 18 16 3 359 4 329 335 6 355 358 14 60 61 42 30 31 44 36 20 35 45 42 36 31 32 30 28 29 31 34 31 28 28 23
277 278 278 275 274 273 272 268 262 256 252 249 246 244 241 237 233 232 231 230 229 228 229 229 230 230 228 228 223 214 208 208 211 211 212 212 212 217 218 215 219 223 224 225 219 211 204 201 216 256 354 10 13 26 20 2 340 336 339 317 309 322 332 351 356 28 66 52 35 32 42 35 13 26 48 40 33 28 27 27 24 24 28 30 29 24 20 16
276 277 276 273 272 272 270 267 262 256 253 250 247 243 239 234 230 229 228 227 226 227 229 230 227 228 230 228 222 214 209 210 213 213 214 213 213 217 216 214 218 223 223 221 218 213 214 218 214 246 326 349 351 17 8 335 326 327 317 307 304 295 274 298 328 2 59 44 49 42 36 29 8 17 48 36 27 26 23 24 20 19 26 26 26 22 13 12
275 275 274 271 270 269 268 265 261 256 253 250 244 238 234 230 228 227 225 225 226 224 226 226 221 222 228 226 222 218 213 212 213 212 212 213 213 215 217 217 218 218 215 216 220 216 213 219 218 238 266 283 300 341 338 316 322 324 314 306 293 283 285 294 320 345 66 51 38 50 39 33 15 10 40 35 22 19 17 19 18 18 22 23 22 15 10 12
274 273 271 269 267 266 265 264 260 255 252 246 239 233 230 231 230 228 227 226 227 226 226 227 224 229 233 228 224 221 215 211 210 210 209 212 212 213 217 218 217 215 212 212 218 219 212 214 222 228 238 250 262 284 301 309 322 333 341 319 273 279 309 322 325 333 74 62 352 14 51 34 17 1 15 30 23 14 9 11 15 17 17 18 17 10 9 8
272 271 268 265 263 262 262 261 257 254 250 243 236 229 226 229 228 229 231 230 229 228 229 230 228 233 234 230 226 220 212 210 211 211 209 211 210 211 216 216 212 215 217 214 216 224 218 217 225 222 226 244 258 268 286 310 339 356 13 340 305 304 305 310 316 310 7 59 329 348 44 11 358 355 2 21 23 7 359 359 4 9 11 12 12 8 6 360
271 268 265 262 259 258 258 257 254 252 246 238 231 224 223 228 229 230 230 230 232 228 227 228 228 232 233 230 227 218 210 210 212 214 212 210 210 210 212 211 209 213 218 216 219 229 225 224 228 223 225 245 267 272 292 327 10 30 33 6 327 307 299 312 321 320 325 340 282 320 25 340 330 340 356 11 12 0 355 351 353 359 5 7 7 5 1 354
269 265 261 258 255 254 253 252 251 248 240 232 227 222 225 234 235 232 227 228 233 230 225 224 224 228 229 228 223 212 209 209 211 216 213 209 210 210 208 209 209 213 217 215 215 221 220 222 224 220 225 249 275 284 314 352 18 42 4 345 328 295 289 308 302 320 334 304 243 308 1 328 321 329 343 0 8 7 4 360 357 358 1 1 1 359 355 351
266 262 257 254 252 250 248 249 247 240 234 230 225 224 230 237 234 229 227 227 230 230 225 222 221 223 223 222 214 206 208 210 210 214 212 206 207 208 208 208 209 214 219 214 210 214 219 225 224 218 221 234 266 291 323 358 345 331 291 308 325 296 285 306 277 278 356 333 288 22 352 320 316 321 320 337 358 7 8 10 8 4 2 1 359 355 350 348
263 258 254 251 249 246 245 244 239 234 233 228 224 227 234 238 233 228 228 228 229 229 225 220 220 220 218 214 210 207 209 212 211 213 211 206 204 207 210 211 211 216 218 213 211 217 224 228 221 217 227 235 260 289 297 313 331 326 291 278 301 294 307 29 210 216 344 311 281 289 344 310 303 308 301 316 343 354 357 6 9 7 5 1 357 352 347 348
261 256 251 248 246 243 241 237 233 231 231 226 224 231 237 238 233 227 226 229 230 227 221 217 217 216 214 211 210 208 211 218 216 214 211 207 206 207 210 213 215 217 215 214 216 219 225 224 216 215 224 239 262 279 276 279 338 321 297 289 327 21 81 171 206 233 258 272 273 278 312 306 306 301 292 307 331 340 346 355 359 1 2 358 351 347 346 346
259 253 249 246 243 239 235 231 229 228 225 225 228 234 239 236 230 226 225 230 232 224 217 217 216 212 212 212 209 204 211 220 216 213 211 208 208 208 210 214 216 218 216 215 220 221 221 223 225 225 224 235 255 267 260 242 287 298 294 312 356 90 179 218 231 255 265 273 293 296 295 310 312 296 286 298 318 327 334 342 347 350 352 351 346 343 344 344
257 252 247 243 239 235 231 229 228 225 223 227 231 233 234 230 225 222 217 219 227 220 215 217 215 213 214 212 209 206 213 217 212 214 212 207 209 209 213 216 212 216 218 215 220 223 221 224 227 227 231 237 244 251 244 230 263 283 291 314 308 299 300 293 287 273 275 282 274 284 303 319 309 300 297 301 304 310 317 326 334 339 340 342 342 340 341 341
256 250 245 240 236 232 229 227 225 223 225 230 232 232 230 226 221 217 211 216 222 217 215 215 214 214 214 211 211 212 215 215 211 214 212 208 210 210 214 216 210 214 222 219 219 222 223 226 226 223 231 237 241 248 239 231 258 276 299 321 326 333 324 315 304 274 290 303 264 268 292 316 308 303 301 302 299 302 312 322 326 330 332 335 337 338 337 336
255 248 244 238 232 228 226 226 224 223 228 231 232 231 225 219 214 209 213 219 218 216 216 214 213 212 208 207 214 216 215 216 214 211 210 211 213 214 214 215 212 215 225 228 223 223 228 231 230 227 229 232 239 248 241 234 245 259 295 306 315 322 309 304 304 286 298 306 275 260 254 289 314 309 299 296 298 305 315 323 325 325 325 327 330 332 332 331
253 247 242 234 227 223 222 223 222 223 228 230 231 226 216 212 208 202 213 219 216 219 220 216 213 210 205 206 213 215 212 216 217 211 211 215 214 215 216 217 219 221 229 234 229 229 233 232 231 232 232 232 241 251 249 249 249 246 266 270 272 298 303 307 308 302 291 289 284 270 248 259 302 307 306 299 302 312 315 319 323 320 316 318 324 326 326 327
250 244 239 232 226 222 219 219 221 224 229 228 226 219 207 208 212 209 216 222 216 217 216 214 212 208 208 210 213 213 211 214 218 212 212 216 214 214 216 216 218 223 231 232 229 233 234 231 234 238 236 233 239 250 252 260 261 249 258 264 264 283 295 301 299 294 284 279 288 293 268 277 288 291 299 299 304 311 311 310 310 308 309 313 318 321 322 323
248 243 237 230 225 220 217 219 222 225 228 223 218 212 200 201 213 213 213 213 211 214 214 213 212 206 204 209 213 213 212 215 218 215 214 216 215 217 219 217 214 217 225 225 225 232 236 239 237 236 238 235 232 240 244 250 257 252 253 257 257 264 278 284 285 290 289 280 290 299 282 288 294 294 296 297 303 309 311 309 301 298 306 309 314 318 320 321
247 241 234 228 223 220 219 220 221 223 224 216 209 207 201 204 214 211 210 214 214 216 216 213 212 206 202 207 212 210 211 215 214 212 216 216 215 217 220 220 216 215 219 221 223 225 230 239 233 228 235 237 233 234 232 236 248 251 250 251 252 252 256 263 266 274 284 286 296 296 285 288 294 295 294 293 301 310 317 317 310 307 309 311 317 318 317 319
244 236 230 225 221 218 216 216 217 218 216 209 205 205 203 207 211 205 208 217 217 218 224 218 207 204 206 211 213 209 210 214 211 209 215 215 214 216 216 218 218 214 214 219 225 224 226 234 231 227 226 223 229 233 224 227 245 252 251 254 260 258 252 255 258 259 269 290 295 287 284 289 287 289 291 292 302 313 320 322 321 318 314 315 319 317 315 314
238 229 224 221 217 213 210 208 209 212 211 205 206 209 207 207 205 199 203 213 217 221 230 221 204 202 209 212 213 212 211 212 209 210 216 217 217 218 217 219 216 211 210 213 220 220 222 229 227 225 223 217 220 225 221 224 235 245 247 250 257 256 243 240 261 276 281 286 289 288 292 297 295 291 290 295 306 313 317 318 319 319 317 316 316 314 311 307
233 225 219 219 215 208 204 204 205 210 210 204 206 212 211 208 203 199 204 213 221 222 217 211 206 206 208 209 213 213 210 211 210 212 216 219 221 218 217 220 215 210 210 210 215 216 213 221 221 214 219 226 224 224 231 233 228 232 242 247 252 256 250 242 258 286 295 290 291 296 295 292 293 293 291 292 299 305 310 313 315 316 316 313 311 309 306 303
229 218 215 216 211 203 200 204 207 210 210 207 212 215 210 207 205 206 212 217 220 215 204 204 208 206 204 207 212 211 207 208 210 211 212 217 222 214 209 215 213 210 209 205 210 214 204 211 222 211 213 236 240 230 237 244 239 235 236 241 244 245 252 253 253 269 284 295 298 300 296 286 279 284 289 288 288 295 304 310 313 312 311 310 308 305 302 300
222 211 213 214 205 199 201 206 210 211 210 209 215 216 209 208 211 214 218 220 216 210 205 208 208 205 205 206 209 209 206 206 207 208 208 211 218 213 205 210 212 210 206 199 201 206 198 200 216 216 219 240 247 229 230 235 238 236 231 239 253 251 248 250 255 264 275 291 297 303 306 294 280 281 287 287 288 293 298 305 310 309 307 307 304 301 299 296
215 207 212 212 201 198 204 209 211 211 212 212 214 213 209 209 211 214 218 217 211 208 209 209 206 206 210 210 208 207 204 204 205 207 210 211 214 216 211 208 207 205 199 195 198 202 199 200 210 222 233 246 238 230 229 225 223 224 227 236 252 260 256 256 268 276 281 289 294 306 310 299 291 291 289 289 294 293 293 301 309 308 306 305 302 300 298 293
209 206 212 209 200 202 208 212 214 212 212 215 215 212 211 210 208 212 219 214 207 208 210 207 205 207 209 209 209 206 202 204 205 208 213 212 210 215 212 204 198 193 189 192 199 201 201 203 212 228 242 250 244 236 231 226 222 224 231 235 241 250 252 262 278 280 285 295 292 298 305 300 298 300 296 296 299 298 297 303 307 307 305 305 303 301 297 293
205 206 213 208 202 208 212 215 219 215 211 216 216 212 212 210 205 207 211 208 204 206 206 202 201 203 202 203 206 203 201 205 207 207 210 210 208 210 207 196 188 184 184 191 198 199 200 205 217 234 241 244 249 244 232 229 227 229 240 241 242 251 250 251 267 271 281 299 298 302 307 301 300 305 306 307 309 308 305 305 306 306 306 305 304 302 297 293
201 204 208 205 206 213 214 217 223 221 217 219 217 213 210 206 202 203 203 202 202 201 198 197 196 196 198 201 201 200 200 204 205 204 206 208 209 208 202 191 186 185 187 194 199 201 206 210 217 235 246 243 246 245 235 233 232 239 254 251 244 248 249 249 261 266 269 283 296 310 310 303 303 309 313 313 315 314 310 306 305 307 307 305 301 298 293 289
198 200 203 204 210 216 213 213 217 219 222 221 215 212 209 203 201 201 199 199 201 196 194 197 196 196 200 200 197 198 198 199 203 204 203 207 210 208 200 193 191 193 197 199 200 203 209 212 211 221 240 240 243 251 249 251 251 245 250 251 242 235 240 257 274 284 278 277 289 304 303 302 306 310 312 312 312 312 309 306 305 306 306 302 297 293 288 284
200 202 206 209 213 215 213 209 207 210 219 217 210 209 206 202 202 201 200 202 202 196 194 199 199 200 204 199 196 199 195 194 201 201 200 205 211 210 204 199 195 196 201 202 198 198 207 213 212 212 218 223 231 242 242 242 247 246 245 251 251 245 250 261 274 287 282 278 287 296 299 304 309 308 308 308 307 309 308 305 304 304 302 296 291 288 282 279
203 207 211 213 215 216 217 214 205 204 211 208 204 203 200 199 203 203 202 203 203 197 196 201 201 200 204 198 193 198 196 195 202 200 198 204 207 208 206 202 198 196 196 194 190 194 208 219 218 216 220 224 228 236 238 232 232 236 241 253 264 271 280 279 278 282 280 280 287 291 297 307 306 301 302 304 305 306 306 303 301 299 297 293 288 283 279 279
206 209 209 209 215 218 219 218 208 202 205 201 197 198 198 200 203 202 200 200 202 199 197 200 198 197 203 199 190 195 198 198 202 201 203 206 204 206 202 194 196 194 185 185 189 196 210 221 222 223 233 237 234 237 242 239 234 232 235 254 273 284 292 289 284 285 287 292 294 292 296 304 301 296 296 299 301 303 301 298 294 291 291 290 286 283 280 282
209 210 210 207 211 213 213 214 207 202 206 201 195 195 198 201 203 201 201 203 205 201 196 200 203 203 207 200 189 195 202 200 200 201 205 206 202 205 198 184 187 186 179 184 198 200 205 220 225 226 238 249 245 240 238 235 239 245 249 262 277 288 289 285 288 293 294 295 295 292 292 297 300 299 297 295 298 300 299 295 291 289 291 288 283 281 281 284
210 209 212 210 211 211 211 212 204 199 203 201 197 197 198 202 205 203 200 201 206 203 196 201 210 210 210 203 191 195 201 199 205 208 205 205 202 196 188 181 181 182 179 186 202 204 207 222 230 226 233 254 259 250 240 230 234 253 268 272 276 286 291 294 296 297 302 304 301 297 297 300 302 302 300 299 301 303 301 296 292 289 289 286 282 282 284 288
211 212 214 214 216 216 214 214 205 199 203 201 199 201 199 200 204 205 202 198 202 205 197 200 212 212 207 203 195 201 204 199 206 213 204 200 199 191 188 187 185 184 185 193 207 217 219 225 233 232 231 250 257 249 239 231 225 239 265 277 283 293 300 303 300 299 305 308 305 305 308 307 306 306 308 308 306 304 300 294 291 288 285 284 285 286 289 292
215 217 217 215 221 220 215 215 207 200 203 202 199 201 200 200 202 204 207 203 200 201 198 201 210 209 202 203 201 209 213 203 205 213 206 198 194 189 192 196 191 188 196 207 219 232 230 229 236 237 231 241 250 242 226 223 226 244 269 283 292 296 295 296 297 295 294 297 302 307 307 304 305 311 315 312 303 297 294 291 290 287 283 283 284 286 290 293
221 223 222 217 222 222 214 214 211 204 206 204 199 199 201 205 206 202 205 207 204 206 209 207 205 199 201 209 209 213 219 208 203 210 206 199 195 192 196 198 193 195 206 216 229 240 236 229 231 234 229 232 243 241 229 232 253 265 269 275 284 290 291 293 298 298 294 293 296 300 301 301 305 310 313 310 301 294 289 287 286 284 282 283 285 288 292 294